[[{"header":{"parameterUnit":"m.s-1","parameterCategory":1,"la1":30.2992,"la2":30.254,"lo1":-89.0895,"lo2":-89.0443,"dy":0.0025,"dx":0.0025,"nx":19,"ny":19,"refTime":"2026-04-22T09:00:00:Z","depth":0,"parameterNumber":2,"parameterNumberName":"U-component_of_WINDS"},"data":[0,0,0,-3.3677,-3.3681,-3.3882,-3.3883,-3.4121,-3.4123,0,0,0,0,0,0,0,0,0,0,0,-3.3607,-3.3608,-3.3677,-3.3681,-3.3882,-3.3883,-3.4121,-3.4123,0,0,0,0,0,0,0,0,0,0,0,-3.3606,-3.3608,-3.3609,-3.3682,-3.3881,-3.3883,-3.4121,-3.3975,0,0,0,0,0,0,0,0,0,0,-3.3784,-3.3709,-3.3607,-3.3609,-3.3683,-3.3881,-3.3883,-3.3969,-3.3985,-3.4023,0,-3.4054,0,-3.4093,-3.4138,-3.4139,0,0,0,-3.3689,-3.3695,-3.3759,-3.361,-3.3685,-3.3881,-3.3793,-3.3978,-3.3996,-3.4044,-3.4058,-3.4067,-3.4097,-3.414,-3.4141,-3.4336,-3.4337,0,0,-3.3678,-3.3637,-3.3747,-3.377,-3.3738,-3.3787,-3.38,-3.3989,-3.4002,-3.4059,-3.4073,-3.4101,-3.4141,-3.4143,-3.4336,-3.4336,0,0,0,-3.3641,-3.3629,-3.3689,-3.376,-3.3797,-3.3793,-3.3807,-3.3993,-3.4016,-3.4076,-3.4103,-3.4142,-3.4145,-3.4335,-3.4336,-3.4321,0,0,0,-3.3635,-3.3607,-3.3683,-3.366,-3.3794,-3.3898,-3.3807,-3.4003,-3.4026,-3.4102,-3.4143,-3.4147,-3.4335,-3.4335,-3.432,-3.4319,0,0,0,-3.3597,-3.3603,-3.3629,-3.3658,-3.3742,-3.3896,-3.393,-3.4009,-3.4042,-3.4139,-3.4148,-3.4334,-3.4335,-3.4319,-3.4319,-3.4357,0,0,0,-3.3545,-3.3613,-3.3628,-3.3714,-3.374,-3.3886,-3.3929,-3.404,-3.4121,-3.4144,-3.4335,-3.4336,-3.4319,-3.4318,-3.4356,-3.438,-3.4387,0,0,-3.3608,-3.3619,-3.3673,-3.3692,-3.3824,-3.3859,-3.3989,-3.4103,-3.415,-3.4271,-3.4277,-3.432,-3.4318,-3.4357,-3.4445,-3.445,0,0,0,-3.3679,-3.3717,-3.3761,-3.3837,-3.3926,-3.4002,-3.4101,-3.4143,-3.4248,-3.4204,-3.4348,-3.4348,-3.4372,-3.4385,-3.4389,-3.4412,-3.4341,-3.4341,-3.4341,-3.3705,-3.3763,-3.3856,-3.3937,-3.401,-3.4112,-3.4176,-3.4251,-3.4288,-3.4321,-3.4355,-3.4402,-3.4416,-3.4419,-3.4442,-3.4376,-3.4376,-3.4376,-3.4376,-3.3799,-3.3861,-3.3909,-3.4015,-3.4076,-3.4166,-3.4268,-3.429,-3.4383,-3.438,-3.4404,-3.4393,-3.4423,-3.4446,-3.4375,-3.4375,-3.4375,-3.4375,-3.4375,-3.382,-3.3859,-3.3911,-3.4026,-3.4109,-3.4191,-3.4277,-3.433,-3.4381,-3.4405,-3.4446,-3.4447,-3.4451,-3.4422,-3.4422,-3.4422,-3.4422,-3.4422,-3.4423,-3.3819,-3.3878,-3.3944,-3.4045,-3.4101,-3.4181,-3.4286,-3.4342,-3.4418,-3.4449,-3.445,-3.4481,-3.4417,-3.4397,-3.4425,-3.4425,-3.4424,-3.4424,-3.4424,-3.3887,-3.388,-3.3982,-3.4038,-3.4161,-3.4239,-3.4307,-3.4418,-3.4473,-3.4513,-3.4542,-3.4486,-3.4501,-3.4498,-3.4482,-3.453,-3.453,-3.453,-3.453,-3.3901,-3.3915,-3.4031,-3.4117,-3.4207,-3.4279,-3.4392,-3.4474,-3.4558,-3.4596,-3.4598,-3.4582,-3.4577,-3.4595,-3.459,-3.4576,-3.4647,-3.4647,-3.4647,-3.3945,-3.397,-3.4055,-3.4138,-3.4238,-3.4323,-3.4431,-3.4527,-3.4622,-3.4653,-3.4626,-3.4621,-3.4597,-3.4587,-3.4612,-3.4603,-3.4578,0,0]},{"header":{"parameterUnit":"m.s-1","parameterCategory":1,"la1":30.2992,"la2":30.254,"lo1":-89.0895,"lo2":-89.0443,"dy":0.0025,"dx":0.0025,"nx":19,"ny":19,"refTime":"2026-04-22T09:00:00:Z","depth":0,"parameterNumber":3,"parameterNumberName":"V-component_of_WINDS"},"data":[0,0,0,4.7029,4.7033,4.7215,4.7215,4.744,4.7442,0,0,0,0,0,0,0,0,0,0,0,4.6974,4.6975,4.7028,4.7033,4.7214,4.7215,4.744,4.7442,0,0,0,0,0,0,0,0,0,0,0,4.6973,4.6975,4.6977,4.7034,4.7214,4.7215,4.7439,4.7304,0,0,0,0,0,0,0,0,0,0,4.7128,4.7077,4.6974,4.6977,4.7035,4.7214,4.7215,4.7298,4.7312,4.7356,0,4.7397,0,4.7424,4.7457,4.7458,0,0,0,4.7032,4.7065,4.7116,4.6977,4.7036,4.7214,4.7132,4.7306,4.7323,4.7376,4.7401,4.7409,4.7428,4.7459,4.746,4.7721,4.7722,0,0,4.7022,4.7005,4.7104,4.7127,4.7102,4.7127,4.7138,4.7316,4.7341,4.7402,4.7414,4.7431,4.746,4.7462,4.7719,4.7721,0,0,0,4.6994,4.6998,4.7044,4.7117,4.7151,4.7132,4.7145,4.7333,4.735,4.7417,4.7434,4.7461,4.7464,4.7718,4.772,4.7764,0,0,0,4.6988,4.6981,4.704,4.703,4.7148,4.7245,4.7158,4.7337,4.7358,4.7433,4.7461,4.7466,4.7717,4.7719,4.776,4.7787,0,0,0,4.6962,4.6978,4.7005,4.7029,4.7107,4.7242,4.727,4.7342,4.7369,4.7458,4.7467,4.7716,4.7719,4.7757,4.7781,4.785,0,0,0,4.6928,4.7039,4.7005,4.7136,4.7106,4.7271,4.7269,4.7391,4.7474,4.7463,4.7717,4.772,4.7755,4.7777,4.7845,4.7903,4.7926,0,0,4.7058,4.7054,4.7133,4.7108,4.7274,4.7244,4.7416,4.7506,4.7529,4.7654,4.7661,4.7762,4.778,4.7849,4.8065,4.8083,0,0,0,4.7168,4.7223,4.7272,4.7352,4.7427,4.7492,4.7558,4.7592,4.77,4.7592,4.7807,4.7819,4.7859,4.7887,4.7903,4.7938,4.7733,4.7733,4.7732,4.7322,4.735,4.7481,4.7531,4.7609,4.7678,4.7742,4.7799,4.7801,4.7852,4.7887,4.8016,4.8049,4.806,4.8097,4.7922,4.7923,4.7923,4.7923,4.7513,4.7596,4.7601,4.773,4.7757,4.7864,4.7936,4.7934,4.8036,4.7991,4.8028,4.7974,4.808,4.8112,4.7927,4.7926,4.7925,4.7925,4.7925,4.7615,4.766,4.7702,4.7822,4.7911,4.7957,4.8056,4.8077,4.8097,4.8134,4.8173,4.8173,4.8172,4.8152,4.8153,4.8153,4.8154,4.8154,4.8154,4.7703,4.775,4.7832,4.7924,4.7979,4.8054,4.8127,4.818,4.8244,4.8251,4.8252,4.8247,4.8087,4.8044,4.8161,4.816,4.8159,4.8158,4.8158,4.788,4.7845,4.7972,4.8028,4.8137,4.8223,4.8251,4.8359,4.8406,4.8454,4.8444,4.8323,4.8318,4.8306,4.827,4.8439,4.8439,4.8439,4.8439,4.7964,4.7966,4.8102,4.8189,4.8278,4.8317,4.8457,4.8516,4.8569,4.86,4.8579,4.8536,4.8523,4.8526,4.8509,4.8476,4.8693,4.8694,4.8694,4.8073,4.8086,4.8202,4.8259,4.8347,4.8421,4.8553,4.8651,4.8704,4.8704,4.8624,4.8613,4.8543,4.8519,4.8512,4.8485,4.8426,0,0]}]]